OBJECT E, 43755

Orbit data source: Space-Track

You're viewing an Uncataloged Satellite

Recently launched and/or uncataloged satellites may have evolving metadata. Metadata may include but not limited to: Owner, Maufacturer, Bus, Motor, and Mission.

OBJECT E, 43755 is a satellite owned by NIIPP (CIS) in LEO that was launched on Fri, 30 Nov 2018 UTC launched from the Plesetsk Missile And Space Complex (PKMTR). Unknown objects in Earth's orbit typically refer to objects detected orbiting the Earth but have not yet been identified or cataloged. These objects could be anything from previously untracked satellites, spent rocket stages, debris from satellite collisions, or even natural meteoroids temporarily captured by Earth's gravity.

Loading next visibility...
Identifier
43755, 2018-097E
Orbit
LEO
Country
Flag of CISCIS
Related business
Manufacturer
NIIPP
Mission
Spacecraft
Bus & Motor
Unknown
Mass
Unknown
Launch date (UTC)
2018-11-30 (7 years ago)
Launch vehicle
Unknown
Launch site
Plesetsk Missile And Space Complex (PKMTR)
Object type
Unknown
Shape & HBR
Box, 0.1 m
Radar Cross Section
0.060 m², Small (<0.1 m²)

Expand to show TLE details & history
Last TLE update: 7 hours ago

TLE from 7 hours ago
0 OBJECT E
1 43755U 18097E   25342.86878405  .00000193  00000-0  71580-3 0  9998
2 43755  82.5147 223.3699 0217009  22.1749 338.8565 12.80907033328241
Epoch: 2025-12-08T20:51Z
TLE epoch observation values (Epoch: 2025-12-08T20:51:02.941Z)
Latitude
-0.00004°
Longitude
-167.254°
Altitude
1,184.87 km
Speed
7.334 km/s
True Right ascension
14h 53m 28s
True Declination
0° 00' 00"
Sunlit
Object was in daylight at epoch
Visualization orbit readout
Latitude
Unknown
Longitude
Unknown
Altitude
Unknown
Speed
Unknown
Apparent Right ascension
Unknown
Apparent Declination
Unknown
Sunlit
N/A
Visualization observer readout
Local Sidereal Time
02:19:45
Azimuth
Unknown
Elevation
Unknown
Doppler factor
Unknown
Orbital elements
Apogee altitude
1,502.505 km
Perigee altitude
1,167.736 km
Semi-major axis
7,713.257 km
Eccentricity
0.0217
Inclination
82.5147°
RAAN
223.3699°
Arg. of periapsis
22.1749°
True anomaly
337.9363°
Mean anomaly
338.8565°
Eccentric anomaly
338.39876°
Mean motion
3.20396 °/min
Orbital period
112.36 mins
BSTAR
0.0007158
Loading maneuver chart data...
Computing Atmospheric mass density...
Loading historical data...
Loading historical data...
Loading historical data...
Loading historical data...
Loading historical data...
Loading historical data...
Loading historical data...
Other satellites on launch #97 in the year 2018 (2018-11-30 UTC)

Documentation

Showing up to 5 results
|